User: anonymous   Login
Location: Nebula Knoll Observatory
(43.6666°N, 71.0000°W)
Time: 16:01:40
(UTC-04:00)
Language:

SeaSat 1 - Orbit

View from above orbital plane
View from above orbital plane
View from above satellite
View from above satellite

Ground track
Ground track

The orbit data is extracted from the following two-line orbital elements,

1 10967U 78064A   18174.45358677 -.00000056  00000-0  23835-4 0  9991
2 10967 108.0195 355.4542 0002526 272.1793  87.9062 14.43718239100187
Epoch (UTC): 23 June 2018 10:53:09
Eccentricity: 0.0002526
inclination: 108.0195°
perigee height: 744 km
apogee height: 748 km
right ascension of ascending node: 355.4542°
argument of perigee: 272.1793°
revolutions per day: 14.43718239
mean anomaly at epoch: 87.9062°
orbit number at epoch: 10018

The dashed part of the orbit path shows where the satellite is in the earth's shadow,  

DLR